Find Geely Xingzuo 04 zu 05 xing

NORAD ID: 65123 Int'l Des: 2025-170 Owner: GEESP Country: CN Constellation: geesatcom operational
LEOCIRCULAR

Current View

Loading 3D Globe...

About Geely Xingzuo 04 zu 05 xing

Description loading...

Upcoming Passes

Passes for default location (London). Set your location on the main map for personalized predictions.

Altitude History

Loading altitude history...

Two-Line Element Set

1 65123U 25170E 26151.51932882 .00001994 00000-0 27590-3 0 9994
2 65123 49.9928 205.6358 0008331 257.4949 102.5056 14.82080638 44573
Epoch: May 31, 2026 • Age: 5 hours

Current Status

Altitude 632.0 km
Velocity 7.55 km/s
Sub-Earth Point 45.23°N, 170.7°E
Launch Date Aug 8, 2025
Age 0.8 years
Type other

Technical Details

Classification Payload
Mass 130.00 kg
Dry Mass 130.00 kg
Total Mass 130.00 kg
Length 1.00 m
Diameter 0.50 m
Span 2.00 m
Shape Box + 2 pan
Manufacturer GWCG
Bus Type GPS100
Phase Status In Orbit
Owner/State GEESP/CN

Most Searched